CZ-2C DEB

Satellite information

Favourite Embed

Satellite Type and Status

DEBRISIN ORBIT

Key statistics

Satellite CZ-2C DEB at a glance.

Uptime

5875

Days in orbit

Revolutions

≈ 14.4

Per day

Orbit

SSO

Sun Synchronous Orbit

Inclination

98.8

Latest

Satellite identification and parameters

Extended collection of information and parameters for CZ-2C DEB.

Object identification

Identified? True

Debris? True

Object name: CZ-2C DEB

International designator: 2009-061E

Object number (NORAD): 36092

Object ID (CCSDS): 36092

Country: PEOPLES REPUBLIC OF CHINA (PRC)

Current information (Y/N): Y

RCS size: SMALL

Orbital parameters

Period: 99.892 minutes

Inclination: 98.7557 deg

SMA: 7131.477 km

Apoapsis: 840.304 km

Periapsis: 666.381 km

RAAN: 344.2978 deg

Eccentricy: 0.012194

Argument of periapsis: 196.6276 deg

Mean anomaly: 227.0735 deg

Mean motion: 14.41562559 rev/day

Mean motion (dot): 0.00003419 rev/day2

B* drag term: 0.00097609 1/REarth

Two-line elements (TLE)

Creation date: Dec. 12, 2025, 7:06 a.m.

Reference frame: TEME

Reference center: EARTH

Epoch: Dec. 12, 2025, 12:07 a.m. UTC

TLE line 0: 0 CZ-2C DEB

TLE line 1: 1 36092U 09061E 25346.00538233 .00003419 00000-0 97609-3 0 9991

TLE line 2: 2 36092 98.7557 344.2978 0121940 196.6276 227.0735 14.41562559838371

Live tracking on map

Real-time ground track for satellite CZ-2C DEB.

In-orbit conjunctions

A list of the most updated potential collisions computed for object CZ-2C DEB.

Target Orbit TCA Probability of collision Miss distance Type
THOR ABLESTAR DEB LEO 2025-10-12 12:09:15 0.000172898 129.0 (m) DEBRIS
CZ-2D R/B SSO 2025-05-24 03:12:40 0.0001554139 717.0 (m) ROCKET BODY
CZ-6A DEB LEO 2024-09-18 16:34:31 0.000241306 438.0 (m) DEBRIS

Associated space launch

Chinese experimental satellite of unknown purpose

CZ-2C DEB was lifted into orbit during the mission ‘Long March 2C | Shi Jian 11-01’, on board a Long March 2 space rocket.

The launch took place on Nov. 12, 2009, 2:45 a.m. from Launch Area 94 (SLS-2 / 603).

For more information about the launch, click the button.

Launch to space Long March 2C | Shi Jian 11-01
Long March 2C | Shi Jian 11-01

Agency: N/A

Status: Launch Successful

Launch date: Nov. 12, 2009, 2:45 a.m. UTC

Rocket: Long March 2

Launch pad: Launch Area 94 (SLS-2 / 603)

Location: Jiuquan Satellite Launch Center, People's Republic of China

...

Latest news about this satellite

There are no fresh news available about this satellite. Check back as we update our databases every day.


Newsletter sign-up

Weekly statistics, charts and insights to help you stay on top of the space industry.